| time (UTC) | temp F | wind direction | speed knots | gust knots | rain 1hr in | rain 24hr in | rain mn in | humidity % | barometer mb |
| 20260510095416 | 52 | 0 | 0.0 | 0.0 | 0.00 | 0.00 | 0.00 | 91 | 1012.4 |
| 20260510094051 | 52 | 0 | 0.0 | 0.0 | 0.00 | 0.00 | 0.00 | 91 | 1012.4 |
| 20260510092651 | 52 | 0 | 0.0 | 0.0 | 0.00 | 0.00 | 0.00 | 90 | 1012.4 |
| 20260510091204 | 52 | 0 | 0.0 | 0.0 | 0.00 | 0.00 | 0.00 | 90 | 1012.3 |
| 20260510085811 | 53 | 0 | 0.0 | 0.0 | 0.00 | 0.00 | 0.00 | 90 | 1012.2 |
| 20260510084436 | 53 | 0 | 0.0 | 0.0 | 0.00 | 0.00 | 0.00 | 90 | 1012.3 |
| 20260510083231 | 53 | 0 | 0.0 | 0.0 | 0.00 | 0.00 | 0.00 | 89 | 1012.3 |
| 20260510081936 | 53 | 0 | 0.0 | 0.0 | 0.00 | 0.00 | 0.00 | 89 | 1012.2 |
| 20260510080526 | 53 | 0 | 0.0 | 0.0 | 0.00 | 0.00 | 0.00 | 89 | 1012.0 |
| 20260510075314 | 54 | 0 | 0.0 | 0.0 | 0.00 | 0.00 | 0.00 | 89 | 1011.8 |
| 20260510074101 | 54 | 0 | 0.0 | 0.0 | 0.00 | 0.00 | 0.00 | 88 | 1011.6 |
| 20260510072731 | 54 | 0 | 0.0 | 0.0 | 0.00 | 0.00 | 0.00 | 89 | 1011.7 |
| 20260510071326 | 54 | 0 | 0.0 | 0.0 | 0.00 | 0.00 | 0.00 | 88 | 1011.4 |
| 20260510070005 | 55 | 0 | 0.0 | 0.0 | 0.00 | 0.00 | 0.00 | 88 | 1011.3 |
| 20260510064716 | 55 | 0 | 0.0 | 0.0 | 0.00 | 0.00 | 0.00 | 88 | 1011.2 |
| 20260510063401 | 55 | 0 | 0.0 | 0.0 | 0.00 | 0.00 | 0.00 | 87 | 1011.0 |
| 20260510062237 | 56 | 0 | 0.0 | 0.0 | 0.00 | 0.00 | 0.00 | 87 | 1011.1 |
| 20260510062201 | 56 | 0 | 0.0 | 0.0 | 0.00 | 0.00 | 0.00 | 87 | 1011.1 |
| 20260510060700 | 56 | 0 | 0.0 | 0.0 | 0.00 | 0.00 | 0.00 | 87 | 1011.1 |
| 20260510055341 | 57 | 0 | 0.0 | 0.0 | 0.00 | 0.00 | 0.00 | 86 | 1011.0 |
| 20260510054046 | 57 | 0 | 0.0 | 0.0 | 0.00 | 0.00 | 0.00 | 86 | 1011.1 |
| 20260510052726 | 57 | 0 | 0.0 | 0.0 | 0.00 | 0.00 | 0.00 | 85 | 1011.2 |
| 20260510051526 | 58 | 0 | 0.0 | 0.0 | 0.00 | 0.00 | 0.00 | 85 | 1011.2 |
| 20260510050316 | 58 | 0 | 0.0 | 0.0 | 0.00 | 0.00 | 0.00 | 85 | 1011.1 |
| 20260510044911 | 59 | 0 | 0.0 | 0.0 | 0.00 | 0.00 | 0.00 | 85 | 1011.0 |
| 20260510043711 | 59 | 0 | 0.0 | 1.7 | 0.00 | 0.00 | 0.00 | 85 | 1011.1 |
| 20260510042421 | 59 | 0 | 0.0 | 0.0 | 0.00 | 0.00 | 0.00 | 84 | 1011.1 |
| 20260510041041 | 59 | 0 | 0.0 | 0.0 | 0.00 | 0.00 | 0.00 | 83 | 1011.0 |
| 20260510035706 | 59 | 0 | 0.0 | 0.0 | 0.00 | 0.00 | 0.00 | 83 | 1011.0 |
| 20260510034235 | 60 | 0 | 0.0 | 0.0 | 0.00 | 0.00 | 0.00 | 83 | 1011.0 |
| 20260510033011 | 60 | 0 | 0.0 | 0.0 | 0.00 | 0.00 | 0.00 | 82 | 1010.9 |
| 20260510031751 | 60 | 0 | 0.0 | 0.0 | 0.00 | 0.00 | 0.00 | 81 | 1010.9 |
| 20260510030521 | 61 | 0 | 0.0 | 0.0 | 0.00 | 0.00 | 0.00 | 81 | 1010.9 |
| 20260510030446 | 61 | 0 | 0.0 | 0.0 | 0.00 | 0.00 | 0.00 | 81 | 1010.9 |
| 20260510025300 | 61 | 0 | 0.0 | 0.0 | 0.00 | 0.00 | 0.00 | 79 | 1010.9 |
| 20260510025226 | 61 | 0 | 0.0 | 0.0 | 0.00 | 0.00 | 0.00 | 79 | 1010.9 |
| 20260510023916 | 62 | 0 | 0.0 | 0.0 | 0.00 | 0.00 | 0.00 | 78 | 1010.8 |
| 20260510022642 | 62 | 0 | 0.0 | 0.0 | 0.00 | 0.00 | 0.00 | 78 | 1010.7 |
| 20260510021351 | 63 | 0 | 0.0 | 0.0 | 0.00 | 0.00 | 0.00 | 77 | 1010.5 |
| 20260510020151 | 63 | 0 | 0.0 | 0.0 | 0.00 | 0.00 | 0.00 | 76 | 1010.5 |
| 20260510014725 | 63 | 0 | 0.0 | 0.9 | 0.00 | 0.00 | 0.00 | 76 | 1010.4 |
| 20260510013502 | 64 | 0 | 0.0 | 1.7 | 0.00 | 0.00 | 0.00 | 76 | 1010.2 |
| 20260510012226 | 64 | 0 | 0.0 | 0.0 | 0.00 | 0.00 | 0.00 | 74 | 1010.0 |
| 20260510011024 | 64 | 71 | 2.6 | 2.6 | 0.00 | 0.00 | 0.00 | 73 | 1009.8 |
| 20260510005618 | 65 | 0 | 0.0 | 0.0 | 0.00 | 0.00 | 0.00 | 71 | 1009.6 |
| 20260510004341 | 65 | 0 | 0.0 | 0.9 | 0.00 | 0.00 | 0.00 | 70 | 1009.5 |
| 20260510002921 | 66 | 0 | 0.0 | 0.0 | 0.00 | 0.00 | 0.00 | 67 | 1009.5 |
| 20260510001638 | 68 | 0 | 0.0 | 0.0 | 0.00 | 0.00 | 0.00 | 64 | 1009.4 |
| 20260510000306 | 70 | 0 | 0.0 | 0.0 | 0.00 | 0.00 | 0.00 | 61 | 1009.3 |
| 20260509234813 | 71 | 0 | 0.0 | 0.0 | 0.00 | 0.00 | 0.00 | 58 | 1009.2 |
| 20260509233346 | 72 | 0 | 0.0 | 0.0 | 0.00 | 0.00 | 0.00 | 56 | 1009.1 |
| 20260509232213 | 72 | 0 | 0.0 | 0.0 | 0.00 | 0.00 | 0.00 | 55 | 1009.0 |
| 20260509232109 | 72 | 0 | 0.0 | 0.0 | 0.00 | 0.00 | 0.00 | 55 | 1009.0 |
| 20260509230826 | 73 | 0 | 0.0 | 0.0 | 0.00 | 0.00 | 0.00 | 55 | 1009.0 |
| 20260509225727 | 73 | 0 | 0.0 | 0.0 | 0.00 | 0.00 | 0.00 | 57 | 1009.1 |
| 20260509225602 | 73 | 0 | 0.0 | 0.0 | 0.00 | 0.00 | 0.00 | 57 | 1009.1 |
| 20260509224306 | 73 | 204 | 0.9 | 0.9 | 0.00 | 0.00 | 0.00 | 54 | 1009.1 |
| 20260509223055 | 73 | 0 | 0.0 | 1.7 | 0.00 | 0.00 | 0.00 | 52 | 1008.9 |
| 20260509221751 | 73 | 0 | 0.0 | 2.6 | 0.00 | 0.00 | 0.00 | 52 | 1009.1 |
| 20260509220336 | 74 | 0 | 0.0 | 0.0 | 0.00 | 0.00 | 0.00 | 51 | 1009.0 |
| 20260509215001 | 74 | 0 | 0.0 | 0.0 | 0.00 | 0.00 | 0.00 | 50 | 1009.0 |
| 20260509213611 | 74 | 275 | 0.9 | 1.7 | 0.00 | 0.00 | 0.00 | 51 | 1009.0 |
| 20260509212131 | 75 | 0 | 0.0 | 1.7 | 0.00 | 0.00 | 0.00 | 50 | 1009.0 |
| 20260509210646 | 76 | 0 | 0.0 | 5.2 | 0.00 | 0.00 | 0.00 | 49 | 1009.1 |
| 20260509205516 | 75 | 0 | 0.0 | 7.0 | 0.00 | 0.00 | 0.00 | 50 | 1009.0 |
| 20260509205331 | 75 | 0 | 0.0 | 7.0 | 0.00 | 0.00 | 0.00 | 50 | 1009.0 |
| 20260509204032 | 75 | 290 | 0.9 | 2.6 | 0.00 | 0.00 | 0.00 | 51 | 1008.9 |
| 20260509202656 | 75 | 272 | 2.6 | 2.6 | 0.00 | 0.00 | 0.00 | 51 | 1008.7 |
| 20260509201422 | 74 | 0 | 0.0 | 6.1 | 0.00 | 0.00 | 0.00 | 52 | 1009.0 |
| 20260509200219 | 74 | 0 | 0.0 | 7.0 | 0.00 | 0.00 | 0.00 | 52 | 1009.3 |
| 20260509195011 | 74 | 162 | 9.6 | 9.6 | 0.00 | 0.00 | 0.00 | 52 | 1009.4 |
| 20260509193800 | 73 | 240 | 5.2 | 5.2 | 0.00 | 0.00 | 0.00 | 55 | 1009.6 |
| 20260509192536 | 73 | 0 | 0.0 | 0.9 | 0.00 | 0.00 | 0.00 | 56 | 1010.0 |
| 20260509191226 | 71 | 0 | 0.0 | 6.1 | 0.00 | 0.00 | 0.00 | 58 | 1010.1 |
| 20260509185925 | 71 | 213 | 0.9 | 6.1 | 0.00 | 0.00 | 0.00 | 59 | 1010.0 |
| 20260509185811 | 71 | 213 | 0.9 | 6.1 | 0.00 | 0.00 | 0.00 | 59 | 1010.0 |
| 20260509184356 | 69 | 203 | 2.6 | 8.7 | 0.00 | 0.00 | 0.00 | 60 | 1010.2 |
| 20260509183111 | 68 | 0 | 0.0 | 0.0 | 0.00 | 0.00 | 0.00 | 61 | 1010.3 |
| 20260509181636 | 68 | 0 | 0.0 | 0.0 | 0.00 | 0.00 | 0.00 | 62 | 1010.5 |
| 20260509180322 | 69 | 0 | 0.0 | 0.0 | 0.00 | 0.00 | 0.00 | 59 | 1011.0 |
| 20260509175015 | 69 | 0 | 0.0 | 0.0 | 0.00 | 0.00 | 0.00 | 56 | 1010.9 |
| 20260509173631 | 70 | 0 | 0.0 | 0.0 | 0.00 | 0.00 | 0.00 | 57 | 1011.0 |
| 20260509172406 | 70 | 0 | 0.0 | 3.5 | 0.00 | 0.00 | 0.00 | 56 | 1011.0 |
| 20260509171006 | 68 | 0 | 0.0 | 0.9 | 0.00 | 0.00 | 0.00 | 58 | 1011.3 |
| 20260509165641 | 68 | 0 | 0.0 | 0.0 | 0.00 | 0.00 | 0.00 | 58 | 1011.3 |
| 20260509164221 | 68 | 257 | 2.6 | 6.1 | 0.00 | 0.00 | 0.00 | 58 | 1011.5 |
| 20260509163027 | 68 | 267 | 0.9 | 5.2 | 0.00 | 0.00 | 0.00 | 58 | 1011.4 |
| 20260509162901 | 68 | 267 | 0.9 | 5.2 | 0.00 | 0.00 | 0.00 | 58 | 1011.4 |
| 20260509161626 | 68 | 0 | 0.0 | 0.9 | 0.00 | 0.00 | 0.00 | 58 | 1011.4 |
| 20260509160209 | 67 | 150 | 2.6 | 4.3 | 0.00 | 0.00 | 0.00 | 61 | 1011.5 |
| 20260509154941 | 66 | 213 | 7.0 | 7.0 | 0.00 | 0.00 | 0.00 | 60 | 1011.8 |
| 20260509153511 | 66 | 0 | 0.0 | 0.0 | 0.00 | 0.00 | 0.00 | 59 | 1011.8 |
| 20260509152319 | 66 | 0 | 0.0 | 8.7 | 0.00 | 0.00 | 0.00 | 62 | 1011.7 |
| 20260509152148 | 66 | 0 | 0.0 | 8.7 | 0.00 | 0.00 | 0.00 | 62 | 1011.7 |
| 20260509150838 | 64 | 0 | 0.0 | 4.3 | 0.00 | 0.00 | 0.00 | 64 | 1012.0 |
| 20260509150706 | 64 | 0 | 0.0 | 4.3 | 0.00 | 0.00 | 0.00 | 64 | 1012.0 |
| 20260509145410 | 63 | 0 | 0.0 | 3.5 | 0.00 | 0.00 | 0.00 | 65 | 1012.1 |
| 20260509144121 | 62 | 208 | 3.5 | 3.5 | 0.00 | 0.00 | 0.00 | 66 | 1012.4 |
| 20260509142746 | 61 | 0 | 0.0 | 4.3 | 0.00 | 0.00 | 0.00 | 66 | 1012.6 |
| 20260509141321 | 60 | 0 | 0.0 | 5.2 | 0.00 | 0.00 | 0.00 | 67 | 1012.7 |
| 20260509135851 | 60 | 0 | 0.0 | 5.2 | 0.00 | 0.00 | 0.00 | 66 | 1012.4 |
| 20260509134747 | 60 | 0 | 0.0 | 0.9 | 0.00 | 0.00 | 0.00 | 67 | 1012.6 |
| 20260509134631 | 60 | 0 | 0.0 | 0.9 | 0.00 | 0.00 | 0.00 | 67 | 1012.6 |
| 20260509133216 | 60 | 0 | 0.0 | 0.9 | 0.00 | 0.00 | 0.00 | 67 | 1012.6 |
| 20260509131921 | 60 | 0 | 0.0 | 6.1 | 0.00 | 0.00 | 0.00 | 66 | 1012.7 |
| 20260509130706 | 60 | 217 | 3.5 | 5.2 | 0.00 | 0.00 | 0.00 | 66 | 1012.7 |
| 20260509125431 | 60 | 202 | 2.6 | 7.8 | 0.00 | 0.00 | 0.00 | 65 | 1012.7 |
| 20260509124222 | 60 | 251 | 2.6 | 7.8 | 0.00 | 0.00 | 0.00 | 64 | 1012.4 |
| 20260509122854 | 59 | 202 | 0.9 | 6.1 | 0.00 | 0.00 | 0.00 | 65 | 1012.4 |
| 20260509122736 | 59 | 202 | 0.9 | 6.1 | 0.00 | 0.00 | 0.00 | 65 | 1012.4 |
| 20260509121320 | 59 | 186 | 5.2 | 8.7 | 0.00 | 0.00 | 0.00 | 63 | 1012.4 |
| 20260509115905 | 59 | 169 | 4.3 | 7.0 | 0.00 | 0.00 | 0.00 | 62 | 1012.4 |
| 20260509114511 | 59 | 0 | 0.0 | 1.7 | 0.00 | 0.00 | 0.00 | 61 | 1012.5 |
| 20260509113031 | 59 | 200 | 3.5 | 4.3 | 0.00 | 0.00 | 0.00 | 61 | 1012.3 |
| 20260509111951 | 59 | 0 | 0.0 | 3.5 | 0.00 | 0.00 | 0.00 | 60 | 1012.2 |
| 20260509111706 | 59 | 0 | 0.0 | 3.5 | 0.00 | 0.00 | 0.00 | 60 | 1012.2 |
| 20260509110451 | 59 | 195 | 0.9 | 7.0 | 0.00 | 0.00 | 0.00 | 58 | 1012.2 |
| 20260509105036 | 59 | 0 | 0.0 | 4.3 | 0.00 | 0.00 | 0.00 | 57 | 1012.2 |
| 20260509103556 | 59 | 0 | 0.0 | 5.2 | 0.00 | 0.00 | 0.00 | 56 | 1012.1 |
| 20260509102136 | 59 | 0 | 0.0 | 0.0 | 0.00 | 0.00 | 0.00 | 55 | 1011.9 |
| 20260509100831 | 59 | 0 | 0.0 | 1.7 | 0.00 | 0.00 | 0.00 | 55 | 1012.0 |